Volver al catálogo

SL-14 DEB

ActivoPO
NORAD 19175·DEBRIS·🇷🇺 Russia

Lanzado Oct 26, 1978 desde Plesetsk Cosmodrome

Loading…

Próximos Pases (próximas 24 horas)

TLE

ActualizadoSource: Space-Track

Época: Sep 14, 2026, 15:56 UTC

1 19175U 78100S   26257.66391404  .00003073  00000-0  43669-2 0  9997
2 19175  82.3469 144.0294 0277678 278.3880  95.6923 13.41734445772774

Sigue SL-14 DEB en tiempo real con AllMySat

Download on the App Store